Location: Springfield
(37.2150°N, 93.2980°W)
Time: 15:47:52
(UTC-05:00)

Daily predictions for brighter satellites

Satellite Brightness Start Highest point End
(mag) Time Altitude Azimuth Time Altitude Azimuth Time Altitude Azimuth
Cosmos 1437 Rocket 3.0 19:51:19 10° S 19:55:19 81° W 19:59:23 10° N
Meteor 1-22 Rocket 4.4 19:50:05 10° S 19:55:48 66° E 20:01:46 10° NNE
Meteor 1-4 Rocket 3.9 19:55:45 10° SE 19:58:10 18° E 20:00:34 10° NE
Cosmos 1833 Rocket 4.2 19:57:38 10° N 20:01:32 19° NE 20:05:25 10° E
FENGYUN 3A 3.8 19:56:31 10° SSE 20:01:47 56° ENE 20:07:04 10° N
Cosmos 2278 Rocket 2.2 19:59:47 10° SSW 20:05:26 79° ESE 20:11:08 10° NNE
SJ-6B 2.6 20:02:40 10° SSE 20:06:24 81° ENE 20:10:08 10° N
Cosmos 1544 3.8 20:03:19 10° SSE 20:06:32 30° E 20:09:47 10° NNE
ATLAS 5 CENTAUR R/B 2.7 20:12:48 10° SSE 20:16:37 26° ESE 20:20:39 10° ENE
ISS -2.5 20:14:18 10° S 20:16:51 21° SE 20:18:25 15° E
H-II Stage 2 3.0 20:18:26 10° SSW 20:19:34 13° S 20:20:29 11° SE
Cosmos 1934 Rocket 4.1 20:14:10 10° S 20:20:19 83° W 20:26:25 10° N
USA 215 3.9 20:14:57 10° ENE 20:20:41 32° SE 20:26:22 10° S
Okean 3 Rocket 3.7 20:16:57 10° N 20:21:15 50° E 20:25:32 10° SSE
Cosmos 2297 3.9 20:15:58 10° S 20:21:23 47° ESE 20:26:51 10° NE
H-2A R/B 2.8 20:17:55 10° SSE 20:21:44 57° ENE 20:25:35 10° N
Cosmos 1867 3.7 20:18:14 10° S 20:23:28 52° ESE 20:28:45 10° NE
Tiangong 1 1.2 20:21:02 10° WNW 20:23:57 57° SSW 20:25:54 18° SE
FengYun 1-2 T 4.2 20:18:47 10° SSE 20:24:20 83° ENE 20:29:59 10° NNW
Abrixas 3.6 20:23:07 10° NW 20:25:39 28° NNE 20:26:58 19° ENE
Spot 2 Rocket 3.5 20:22:08 10° SSE 20:27:10 63° ENE 20:32:14 10° N
Cosmos 1758 3.3 20:27:30 10° S 20:31:23 58° E 20:35:19 10° NNE
Helios 1B rocket 2.9 20:30:17 10° NNE 20:34:08 37° E 20:37:56 10° SSE
Cosmos 1076 Rocket 3.8 20:30:25 10° N 20:34:28 43° E 20:38:07 12° SSE
Lacrosse 5 3.4 20:31:40 10° WSW 20:36:20 37° NW 20:41:02 10° NNE
Meteor 1-24 Rocket 4.4 20:32:05 10° NNW 20:37:30 58° W 20:43:06 10° S
Cosmos 2082 Rocket 2.7 20:32:27 10° N 20:37:47 40° ENE 20:41:10 20° ESE
USA 186 2.4 20:39:54 24° NE 20:39:54 24° NE 20:41:10 10° N
Cosmos 1953 2.2 20:35:18 10° S 20:39:19 67° E 20:43:21 10° NNE
GP-B 3.4 20:40:16 10° SSE 20:44:29 45° E 20:48:43 10° N
Envisat 3.7 20:42:59 23° ESE 20:45:19 34° ENE 20:49:52 10° N
Cosmos 1939 Rocket 4.1 20:45:32 24° ENE 20:45:51 24° ENE 20:49:13 10° NNE
Helios 1A 3.2 20:43:23 21° SE 20:45:55 48° ENE 20:49:57 10° N
Cosmos 1271 Rocket 3.2 20:45:01 14° SSE 20:48:04 38° E 20:51:49 10° NNE
Cosmos 1766 Rocket 3.8 20:45:57 10° N 20:50:18 48° E 20:52:35 25° SE
Resurs 01 Rocket 2.0 20:46:14 10° S 20:50:37 66° WSW 20:55:01 10° NNW
Cosmos 1125 Rocket 3.5 20:48:54 10° SSW 20:54:05 82° WNW 20:59:19 10° NNE
Cosmos-2242 2.9 20:54:18 10° S 20:58:27 57° E 21:02:37 10° NNE
Cosmos 1048 Rocket 3.9 20:54:41 10° NNW 20:59:47 66° ENE 21:02:26 28° SE
Geosat 4.1 20:55:47 10° NNE 21:00:49 78° WNW 21:05:50 10° SSW
Lacrosse 5 rocket 2.8 20:59:17 10° NNW 21:02:16 21° NE 21:02:25 21° NE
ERS-1 Rocket 4.0 21:03:22 27° ENE 21:03:23 27° ENE 21:07:35 10° NNE
Cosmos 2100 Rocket 3.9 20:59:53 10° S 21:06:06 66° E 21:12:25 10° NNE
Cosmos 1674 2.5 21:02:22 10° N 21:06:09 70° E 21:06:52 53° SE
SeaSat 1 3.7 21:02:26 10° S 21:07:00 38° WSW 21:11:36 10° NW
SAR-Lupe-4 3.6 21:05:55 34° S 21:07:21 80° WSW 21:10:56 10° NNW
SJ-11-01 4.5 21:06:19 41° ESE 21:07:26 50° ENE 21:12:00 10° N
Meteor 1-29 3.3 21:17:10 10° N 21:20:36 64° WNW 21:22:08 30° SSW
Cosmos 1743 Rocket 4.1 21:17:29 10° N 21:21:02 44° NE 21:21:02 44° NE
GPS 2-05 Rocket1 3.8 21:21:34 10° WSW 21:24:11 43° SW 21:24:11 43° SW
COSMOS 2487 3.0 21:23:50 10° NNW 21:27:14 58° W 21:27:14 58° W
Cosmos 1802 Rocket 3.8 21:21:17 10° S 21:27:23 76° E 21:33:33 10° N
Cosmos 1818 4.2 21:27:52 10° NW 21:33:07 51° WSW 21:35:22 31° S
Cosmos 2251 Rocket 4.2 21:29:57 10° N 21:34:11 38° NE 21:34:11 38° NE
Cosmos 1470 3.9 21:35:46 16° SSW 21:38:39 44° W 21:42:28 10° N
Cosmos 2061 Rocket 4.1 21:34:39 10° S 21:41:01 77° W 21:47:29 10° N
Cosmos 1833 Rocket 3.1 21:40:21 10° NNW 21:45:52 60° WSW 21:47:24 44° SSW
Cosmos 1340 Rocket 3.8 21:44:39 10° NNW 21:47:50 46° NW 21:47:50 46° NW
Timation 2 Rocket 4.1 21:42:40 10° NNW 21:48:53 67° WSW 21:50:27 49° S
ISS -1.0 21:50:11 10° W 21:51:09 17° W 21:51:09 17° W
CZ-3B DEB 4.5 21:49:53 10° WNW 21:55:21 18° NW 21:58:51 10° N
ATLAS 5 CENTAUR R/B 3.4 21:56:50 10° WSW 22:01:05 33° NW 22:05:41 10° NNE
USA 215 3.5 21:57:26 10° NE 22:03:53 64° NW 22:10:18 10° WSW
Cosmos 1864 Rocket 4.5 22:08:56 80° N 22:08:56 80° N 22:14:53 10° N
BREEZE-M DEB (TANK) 4.2 22:05:57 10° W 22:10:08 61° NNW 22:26:11 10° ENE
Cosmos 2082 Rocket 3.9 22:17:02 10° NW 22:21:36 25° WSW 22:23:04 23° SW
SPOT 5 4.3 22:24:16 36° N 22:24:16 36° N 22:27:20 10° N
H-2A R/B 4.0 22:33:28 22° N 22:33:28 22° N 22:35:20 10° N
USA 267 4.1 22:35:30 40° NNE 22:35:30 40° NNE 22:40:44 10° NNW
